Regional Weather Roundup
Issued by NWS

Home | Current Version | Previous Version | Text Only | Print | Product List | Glossary On
Versions: 1 2 3 4 5 6 7 8 9 10 11 12 13 14 15 16 17 18 19 20 21 22 23 24 25 26 27 28 29 30 31 32 33 34 35 36 37 38 39 40 41 42 43 44 45 46 47 48 49 50
000
ASUS43 KMPX 251901
RWRMN
WEATHER ROUNDUP FOR MINNESOTA
NATIONAL WEATHER SERVICE TWIN CITIES/CHANHASSEN MN
200 PM CDT MON SEP 25 2017


NOTE: "FAIR" INDICATES FEW OR NO CLOUDS BELOW 12,000 FEET WITH NO
SIGNIFICANT WEATHER AND/OR OBSTRUCTIONS TO VISIBILITY. N/A MEANS
CURRENT SKY AND/OR WEATHER CONDITIONS ARE NOT AVAILABLE.

MNZ060>063-068>070-252000-
   Twin Cities Metro

CITY           SKY/WX    TMP DP  RH WIND       PRES   REMARKS
TWIN CITIES    CLOUDY    63  59  87 N8        29.99S
ST PAUL        CLOUDY    62  59  90 N9        29.99S
CRYSTAL        CLOUDY    60  54  80 N8        29.98F
BLAINE         CLOUDY    61  59  94 N9        29.99S
LAKEVILLE      CLOUDY    63  59  88 NW7       29.98F
EDEN PRAIRIE   CLOUDY    62  58  86 N7        29.98F
SOUTH ST PAUL  CLOUDY    63  61  93 NW8       29.98S
LAKE ELMO      CLOUDY    63  59  88 NW8       29.99F
$$
MNZ001>005-007-008-013>017-022>024-027-028-252000-
   Northwest Minnesota

CITY           SKY/WX    TMP DP  RH WIND       PRES   REMARKS
BEMIDJI        CLOUDY    53  49  85 N6        30.07S
HALLOCK          N/A     52  46  82 N12       30.13S
ROSEAU         PTSUNNY   54  48  82 N8        30.12R
THIEF RVR FALL CLOUDY    52  46  82 NE12      30.12S
CROOKSTON      CLOUDY    54  48  82 N12       30.11F
FOSSTON        CLOUDY    54  48  82 N9        30.09F
DETROIT LAKES  CLOUDY    52  46  82 N8        30.09R
MOORHEAD       CLOUDY    52  46  82 N12       30.10S
PARK RAPIDS    PTSUNNY   57  48  72 VRB3      30.06F
MAHNOMEN       CLOUDY    53  47  81 N9        30.08F
$$
MNZ006-009>011-018-025>026-252000-
   North Central Minnesota

CITY           SKY/WX    TMP DP  RH WIND       PRES   REMARKS
BAUDETTE       CLOUDY    52  50  93 N9        30.09S
FLAG ISLAND    CLOUDY    54  45  71 NE10      30.09S
INTL FALLS     CLOUDY    55  49  80 N12       30.06R
WASKISH        CLOUDY    55  50  82 CALM      30.08R
BIG FORK       CLOUDY    55  52  88 N5        30.06R
LONGVILLE      CLOUDY    54  50  87 NW6       30.05S
GRAND RAPIDS   CLOUDY    54  50  86 N8        30.06F
CRANE LAKE     CLOUDY    55  52  88 N6        30.06R
ORR            PTSUNNY   55  48  76 CALM      30.02S
WALKER         CLOUDY    55  48  78 N5        30.06S
$$
MNZ012-019>021-037-252000-
   Northeast Minnesota

CITY           SKY/WX    TMP DP  RH WIND       PRES   REMARKS
DULUTH         LGT RAIN  56  53  90 N7        30.01S
ELY            CLOUDY    55  52  88 CALM      30.03S
HIBBING        LGT RAIN  54  50  86 N5        30.05R
EVELETH        LGT RAIN  55  54  97 CALM      30.05R
GRAND MARAIS     N/A     63  59  87 S5        29.97F
$$
MNZ029>031-032-039>041-046>048-054>057-064-252000-
   West Central Minnesota

CITY           SKY/WX    TMP DP  RH WIND       PRES   REMARKS
FERGUS FALLS   CLOUDY    55  46  71 NE8       30.07F
WHEATON        CLOUDY    54  46  76 N9        30.09F
ALEXANDRIA     CLOUDY    57  49  74 N6        30.06F
ELBOW LAKE     CLOUDY    55  49  81 E7        30.07S
WADENA         CLOUDY    54  48  82 N8        30.06S
GLENWOOD       CLOUDY    55  52  88 N7        30.05F
APPLETON       CLOUDY    57  48  72 N7        30.05F
BENSON         CLOUDY    57  52  82 E5        30.07F
ORTONVILLE     CLOUDY    54  46  76 N8        30.06F
MADISON        CLOUDY    59  52  77 N8        30.05F
WILLMAR        CLOUDY    57  54  88 N9        30.05F
$$
MNZ033>034-036-042>043-049>051-058-059-252000-
   Central Minnesota

CITY           SKY/WX    TMP DP  RH WIND       PRES   REMARKS
ST CLOUD       CLOUDY    56  54  93 NW13      30.02F
SAUK CENTRE    CLOUDY    55  50  83 NW8       30.05S
PAYNESVILLE    CLOUDY    56  52  84 N6        30.04F
AITKIN         CLOUDY    54  52  94 N6        30.03F
PINE RIVER     CLOUDY    54  46  76 N7        30.08S
BRAINERD       CLOUDY    55  50  83 N6        30.05F
STAPLES        CLOUDY    55  48  76 N9        30.05F
LITTLE FALLS   CLOUDY    54  46  76 NW3       30.04F
LITCHFIELD     CLOUDY    57  55  94 N7        30.03F
BUFFALO        CLOUDY    57  54  91 NW8       30.02F FOG
MAPLE LAKE     CLOUDY    57  56  95 NW8       30.03F FOG
HUTCHINSON     CLOUDY    58  56  93 NW8       30.03F
$$
MNZ037-044-045-052-053-252000-
   East Central Minnesota

CITY           SKY/WX    TMP DP  RH WIND       PRES   REMARKS
PRINCETON      CLOUDY    57  55  94 NW7       30.02S
MORA           CLOUDY    55  54  94 N5        30.03F
RUSH CITY      CLOUDY    57  54  88 N7        30.01F
MOOSE LAKE     LGT RAIN  55  52  88 N6        30.01S
HINCKLEY       CLOUDY    57  54  88 NW6       30.01F
CLOQUET        RAIN      55  52  88 NW6       30.03R
MCGREGOR       CLOUDY    54  52  94 N6        30.04F
$$
MNZ071>073-080-081-089-090-097-098-252000-
   Southwest Minnesota

CITY           SKY/WX    TMP DP  RH WIND       PRES   REMARKS
MONTEVIDEO     CLOUDY    55  52  88 NE8       30.05F FOG
GRANITE FALLS  CLOUDY    57  53  85 N8        30.05F
CANBY          CLOUDY    56  51  80 NE7       30.05F
MARSHALL       CLOUDY    55  50  83 N10       30.03F
REDWOOD FALLS  CLOUDY    59  51  75 N9        30.02F
OLIVIA         CLOUDY    57  52  82 N9        30.02F
PIPESTONE      CLOUDY    55  52  88 NE9       30.02F
WORTHINGTON    LGT RAIN  54  52  93 N10       30.02F FOG
JACKSON        DRIZZLE   54  52  94 N6        30.01F
TRACY          CLOUDY    56  52  85 N10       30.03F
SLAYTON        CLOUDY    53  44  71 N10       30.05R
$$
MNZ065>067-074>077-082>085-091>093-252000-
   South Central Minnesota

CITY           SKY/WX    TMP DP  RH WIND       PRES   REMARKS
MANKATO        CLOUDY    59  56  89 N10       29.99F
NEW ULM        CLOUDY    55  54  94 N9        30.02S FOG
ST JAMES       CLOUDY    57  54  88 NW8       30.02F
FAIRMONT       CLOUDY    57  55  93 NW16      30.00F
FARIBAULT      CLOUDY    63  61  94 NW6       29.98F
OWATONNA       CLOUDY    64  63  94 N6        29.98S FOG
WASECA         CLOUDY    61  57  88 N9        30.00S
ALBERT LEA     CLOUDY    70  64  83 N8        29.96S
$$
MNZ078>079-086>088-094>096-252000-
   Southeast Minnesota

CITY           SKY/WX    TMP DP  RH WIND       PRES   REMARKS
ROCHESTER      CLOUDY    77  67  71 CALM      29.94S
RED WING       CLOUDY    70  61  73 NW5       29.94S
STANTON        CLOUDY    64  60  87 N7        29.96F
DODGE CENTER   PTSUNNY   68  63  83 NW9       29.97R
WINONA         CLOUDY    73  68  83 W3        29.92S
AUSTIN         MOSUNNY   73  66  78 CALM      29.94S
PRESTON        CLOUDY    75  64  67 S8        29.95S
$$
ABBREVIATIONS USED IN REMARKS
   TC - TEMPERATURES IN CELSIUS
  WCI - WIND CHILL INDEX
   HX - HEAT INDEX
  VSB - VISIBILITY
$$




USA.gov is the U.S. government's official web portal to all federal, state and local government web resources and services.